sat.trackr.live / text

‹ back to catalog

STARLINK-36384

NORAD 67597 · 2026-018J

PAYLOAD ACTIVE UNKNOWN

§ Identity

Operator
Country
US
Launch date
2026-01-29
Launch site
AFWTR
Launch vehicle
Mass (kg)
RCS (m²)

Purposes: comms

External: N2YO · Heavens-Above · Gunter

§ Orbital elements

Epoch: 2026-05-25T03:02:59.953056Z

Period
93.91 min
Inclination
97.2844°
Eccentricity
0.0000594
Mean motion
15.33447318 rev/d
Perigee alt
465.1 km
Apogee alt
465.9 km
Semi-major
6,843.7 km
B*
3.6230e-4
RAAN
210.3357°
Arg perigee
15.8655°
Mean anomaly
344.2606°
Rev number
1,905

§ Raw data

STARLINK-363841 67597U 26018J   26145.12708279  .00011640  00000+0  36230-3 0  99932 67597  97.2844 210.3357 0000594  15.8655 344.2606 15.33447318 19058

JSON: /api/v1/satellites/67597 · /tle

For live sub-satellite position, see the globe view (requires WebGL).

§ Visibility from observer

Set your observer location to see the next 7 days of passes ≥ 10°. The values pass through the URL so the page stays shareable.

No JS? Fill the form by hand. The geolocation button needs JavaScript.